Regional Weather Roundup
Issued by NWS

Home | Current Version | Previous Version | Text Only | Print | Product List | Glossary Off
Versions: 1 2 3 4 5 6 7 8 9 10 11 12 13 14 15 16 17 18 19 20 21 22 23 24 25 26 27 28 29 30 31 32 33 34 35 36 37 38 39 40 41 42 43 44 45 46 47 48 49 50

000
ASUS45 KTFX 100810
RWRMT
MONTANA REGIONAL WEATHER ROUNDUP
NATIONAL WEATHER SERVICE GREAT FALLS MT
100 AM MST WED FEB 10 2016

NOTE: "FAIR" INDICATES FEW OR NO CLOUDS BELOW 12000 FEET WITH NO
SIGNIFICANT WEATHER AND/OR OBSTRUCTIONS TO VISIBILITY.

MTZ001>007-043-100900-
WEST OF THE DIVIDE

CITY           SKY/WX    TMP DP  RH WIND       PRES   REMARKS
KALISPELL      PTCLDY    20  18  92 CALM      30.24S FOG
MISSOULA       CLEAR     27  24  89 CALM      30.28F
BUTTE          CLOUDY    13  10  88 CALM      30.26F
MULLAN PASS    MOCLDY    41  26  55 W8        30.24S
ANACONDA         N/A     28  19  69 SW5       30.24F
DEER LODGE       N/A     25  21  86 W3        30.27S
HAMILTON         N/A     30  27  86 CALM      30.26F
LIBBY            N/A     23  21  93 CALM      30.27R
$$

MTZ008-052>055-100900-
SOUTHWEST MONTANA

CITY           SKY/WX    TMP DP  RH WIND       PRES   REMARKS
BOZEMAN        CLOUDY    17  13  84 CALM      30.23F
DILLON         CLOUDY    32  22  66 S18       30.26F WCI  20
THREE FORKS      N/A     22  22 100 CALM      30.19F
TWIN BRIDGES     N/A     29  18  63 E8        30.22F WCI  21
$$

MTZ009-010-012-014-046-048-049-054-100900-
EAST SLOPES AND CENTRAL MONTANA

CITY           SKY/WX    TMP DP  RH WIND       PRES   REMARKS
CUT BANK       PTCLDY    50  27  40 W29G37    29.98F
GREAT FALLS    CLOUDY    44  24  45 SW20      30.06S
MALMSTROM AFB  CLOUDY    45  21  39 SW20      30.04F
HELENA         CLOUDY    31  26  82 CALM      30.20S
CHOTEAU          N/A     54  19  26 SW17      30.04F
$$

MTZ011-013-016-021-045-047-050-051-100900-
NORTH CENTRAL MONTANA

CITY           SKY/WX    TMP DP  RH WIND       PRES   REMARKS
HAVRE          CLOUDY    37  25  61 W10       29.96F WCI  30
LEWISTOWN      CLOUDY    45  19  35 SW10      30.04F
CHINOOK          N/A     41  23  48 CALM      29.95F
$$

MTZ017>020-022>027-061-062-100900-
NORTHEAST MONTANA

CITY           SKY/WX    TMP DP  RH WIND       PRES   REMARKS
GLASGOW        CLEAR     35  28  75 W7        29.87F WCI  29
JORDAN           N/A     38  30  73 W13       29.90F WCI  30
SIDNEY         CLOUDY    25  19  80 S6        29.88F WCI  18
WOLF POINT     CLEAR     29  27  92 CALM      29.88F
PLENTYWOOD       N/A     28  23  80 NE5       29.83F
POPLAR           N/A     30  28  93 W5        29.88F
$$

MTZ028>42-056>058-100900-
SOUTHCENTRAL AND SOUTHEAST MONTANA

CITY           SKY/WX    TMP DP  RH WIND       PRES   REMARKS
BAKER          CLEAR     31  24  75 W6        29.91F WCI  25
BILLINGS       CLOUDY    44  22  41 SW26      30.03F
LIVINGSTON     CLOUDY    48  21  34 SW38G54   30.14F
MILES CITY     CLOUDY    31  24  75 SW10      29.93F WCI  22
FORSYTH          N/A     39  25  56 SW9       29.96F
LAUREL           N/A     42  20  41 SW16      30.03F
ROUNDUP          N/A     48  18  30 SW13      29.92F
$$

REGIONAL REPORTS...DAKOTAS

CITY           SKY/WX    TMP DP  RH WIND       PRES   REMARKS
WILLISTON      PTCLDY    27  23  85 S3        29.86F
MINOT          LGT SNOW  19  12  74 SE12      29.92F WCI   7
DICKINSON      PTCLDY    31  25  78 W10       29.85F WCI  22
BEACH            N/A     36  30  80 W3        29.91F
CROSBY           N/A     25  25 100 SE5       29.86F
TIOGA            N/A     27  27 100 E3        29.89F
WATFORD CITY     N/A     27  25  93 SW5       29.87F
BISMARCK       CLOUDY    28  21  75 E9        29.96F WCI  19
GRAND FORKS    CLOUDY     4  -4  69 E6        30.17F WCI  -7
FARGO          CLOUDY     5  -2  72 CALM      30.16F
BUFFALO SD       N/A     35  26  69 W13       29.84F WCI  26
RAPID CITY     CLOUDY    27  23  85 CALM      29.95F
$$

REGIONAL REPORTS...WYOMING/IDAHO/WASHINGTON

CITY           SKY/WX    TMP DP  RH WIND       PRES   REMARKS
GILLETTE       CLEAR     41  22  46 SW18      30.04F
SHERIDAN       CLOUDY    30  20  66 S5        30.03F
BUFFALO WY     CLOUDY    44  17  33 W7        30.07F
CODY           CLOUDY    52  14  22 W13G21    30.15F
YELLOWSTONE LA   N/A      9   5  84 CALM      30.42F
IDAHO FALLS    FOG       13  10  88 N6        30.44F VSB 3/4 WCI   4
SALMON         CLOUDY     9   3  78 CALM      30.43F
BOISE          PTCLDY    29  27  92 W5        30.45R FOG
SPOKANE        PTCLDY    34  30  85 CALM      30.25R
$$

REGIONAL REPORTS...ALBERTA

CITY           SKY/WX    TMP DP  RH WIND       PRES   REMARKS
EDMONTON       PTCLDY    34  27  75 NW6       30.02R WCI  29
CALGARY        CLEAR     28  18  64 N6        29.98S WCI  22
LETHBRIDGE     CLEAR     50  28  43 W21G30    29.96F
MEDICINE HAT   CLEAR     36  28  75 VRB2      29.94R
WATERTON GATE    N/A     52  23  32 SW25G44     N/A
CARDSTON         N/A     54  21  28 W10G20      N/A
MILK RIVER       N/A     41  27  56 W15         N/A
$$

REGIONAL REPORTS...SASKATCHEWAN

CITY           SKY/WX    TMP DP  RH WIND       PRES   REMARKS
SWIFT CURRENT  CLEAR     37  30  75 W12       29.86R WCI  30
SASKATOON      CLOUDY    23  23 100 N6        29.89R WCI  16
CYPRESS HILLS    N/A     46  16  29 NW8         N/A
VAL MARIE        N/A     32  27  80 NE6         N/A  WCI  26
ROCKGLEN         N/A     37  28  70 W14         N/A  WCI  29
ASSINIBOIA       N/A     32  28  86 NW7         N/A  WCI  26
$$



USA.gov is the U.S. government's official web portal to all federal, state and local government web resources and services.